Location: Eastchurch
(51.4000°N, 0.8667°E)
Time: 23:25:46
(UTC+00:00)

Okean 3 - Pass Details

Date: 19 January 2026
Orbit: 541 x 564 km, 82.5° (Epoch: 9 February)

Event Time Altitude Azimuth Distance (km) Brightness Sun altitude
Rises 17:41:27 0° 173° (S) 2,732 7.0 -11.8°
Reaches altitude 10° 17:43:40 10° 168° (SSE) 1,838 6.1 -12.1°
Maximum altitude 17:47:33 47° 94° (E) 742 3.6 -12.7°
Drops below altitude 10° 17:51:27 10° 21° (NNE) 1,839 5.6 -13.3°
Enters shadow 17:52:14 - 18° (NNE) 2,151 6.0 -13.4°
